EST,Max TemperatureF,Mean TemperatureF,Min TemperatureF,Max Dew PointF,MeanDew PointF,Min DewpointF,Max Humidity, Mean Humidity, Min Humidity, Max Sea Level PressureIn, Mean Sea Level PressureIn, Min Sea Level PressureIn, Max VisibilityMiles, Mean VisibilityMiles, Min VisibilityMiles, Max Wind SpeedMPH, Mean Wind SpeedMPH, Max Gust SpeedMPH,PrecipitationIn, CloudCover, Events, WindDirDegrees
2012-12-1,57,46,35,43,36,32,87,57,38,30.27,30.20,30.14,20,9,6,20,10,21,0.00,6,,188
2012-12-2,57,55,53,54,35,28,94,51,36,30.11,30.04,29.98,7,4,2,16,11,25,0.00,8,Rain,229
2012-12-3,62,58,53,59,58,57,94,88,82,30.18,30.11,30.06,7,5,1,16,8,23,0.00,6,,183
2012-12-4,62,53,44,54,48,41,94,83,68,30.10,30.03,29.96,10,6,0,16,13,21,0.00,7,Fog-Rain,259
2012-12-5,41,38,35,32,25,21,75,63,56,30.37,30.34,30.22,20,15,10,14,12,21,0.00,7,,1
2012-12-6,42,35,28,28,26,23,86,63,53,30.29,30.14,30.01,20,13,10,14,9,,0.00,7,,170
2012-12-7,48,45,42,45,43,41,93,88,81,29.98,29.94,29.89,10,6,3,9,8,,0.00,7,Rain,204
2012-12-8,48,44,39,48,42,34,100,92,81,30.12,29.93,29.79,10,4,0,14,8,,0.00,8,Fog-Rain,326
2012-12-9,55,44,35,54,41,30,94,84,70,30.16,29.91,29.70,20,13,4,16,12,23,0.00,8,Rain,146
2012-12-10,44,40,35,45,38,30,100,90,81,29.80,29.68,29.63,10,5,1,16,12,,0.00,8,Rain,305
2012-12-11,37,34,30,30,27,21,87,73,65,30.18,30.06,29.93,20,11,6,14,10,,0.00,6,Snow,259
2012-12-12,41,34,28,28,26,23,93,73,56,30.41,30.37,30.31,20,15,10,14,9,,0.00,0,,213
2012-12-13,46,37,28,25,23,21,80,52,37,30.41,30.33,30.23,20,15,10,14,10,,0.00,2,,192
2012-12-14,46,39,32,32,29,25,93,69,53,30.26,30.23,30.20,15,11,10,14,8,,0.00,4,,262
2012-12-15,48,44,39,34,29,23,62,56,37,30.15,30.00,29.82,20,13,7,17,12,21,0.00,8,,156
2012-12-16,59,56,51,50,47,43,77,71,67,29.74,29.68,29.65,20,13,10,17,13,25,0.00,6,,224
2012-12-17,46,44,42,41,39,37,87,83,81,29.76,29.66,29.56,10,7,7,12,8,21,0.00,8,,15
2012-12-18,41,38,35,37,33,30,93,82,70,29.78,29.74,29.64,7,7,6,17,12,21,0.00,7,Rain,266
2012-12-19,41,39,35,39,37,34,93,89,81,30.15,30.04,29.87,7,6,3,12,8,,0.00,7,,266
2012-12-20,50,44,39,45,37,32,93,77,61,29.85,29.52,29.27,20,8,2,21,15,34,0.00,8,Rain,161
2012-12-21,33,32,32,32,30,27,93,89,80,29.69,29.44,29.25,7,4,0,25,18,39,0.00,8,Snow,296
2012-12-22,33,32,30,27,24,21,80,72,60,30.05,30.02,29.94,20,14,7,16,14,28,0.00,8,,274
2012-12-23,33,28,24,28,25,18,81,74,65,30.01,29.95,29.91,20,12,7,14,9,,0.00,6,,278
2012-12-24,37,32,26,32,28,21,93,79,60,29.97,29.85,29.79,10,6,2,14,7,,0.00,7,Snow,96
2012-12-25,35,34,33,30,28,25,87,78,70,30.24,30.20,30.11,10,10,7,12,9,,0.00,8,,54
2012-12-26,32,30,28,30,26,21,100,88,69,30.03,29.79,29.68,10,4,0,17,12,23,0.00,8,Snow,75
2012-12-27,33,32,30,30,26,21,87,81,69,30.13,30.01,29.86,15,11,10,16,13,23,0.00,8,,330
2012-12-28,32,29,26,25,22,21,80,75,69,30.15,30.06,29.95,15,9,7,12,8,,0.00,6,,164
2012-12-29,33,30,26,30,28,25,93,90,81,29.95,29.80,29.72,6,3,1,21,9,,0.00,8,Snow,348
2012-12-30,33,27,21,28,22,18,100,86,70,30.32,30.28,30.19,10,6,0,15,13,25,0.00,6,Snow,249
2012-12-31,35,32,28,32,26,19,93,76,60,30.11,30.02,29.97,10,6,2,18,14,26,0.00,8,Snow,243